Tracking 29059 objects as of 19-Jun-2024
HD Live streaming from Space Station
objects crossing your sky now

ATLAS 5 CENTAUR DEB

Track ATLAS 5 CENTAUR DEB now!


NORAD ID: 43949
Int'l Code: 2014-055C
Perigee: 6,846.4 km
Apogee: 34,396.4 km
Inclination: 20.2 °
Period: 735.6 minutes
Semi major axis: 26992 km
RCS: Unknown
Launch date: September 17, 2014
Source: United States (US)
Launch site: AIR FORCE EASTERN TEST RANGE (AFETR)

Note: This is SATELLITE DEBRIS
Your satellite tracking list
Your tracking list is empty




NASA's NSSDC Master Catalog

Two Line Element Set (TLE):
1 43949U 14055C   24171.12828149  .00000063  00000-0  00000+0 0  9992
2 43949  20.2205 166.7699 5103295 124.9558 294.1637  1.95767747 41409
Source of the keplerian elements: AFSPC